This is the latest recevied weather packets stored in our database for station/object S51FO-6. If no packets are shown the sender has not sent any weather packets the latest 10 day(s).
| Time | Temp. | Humidity | Pressure | Rain* | Wind** | Luminosity | Snow |
|---|---|---|---|---|---|---|---|
| 1777714199 | 14.44° C | 32% | - | 0 mm | - | - | - |
| 1777713592 | 14.44° C | 32% | - | 0 mm | - | - | - |
| 1777712996 | 15° C | 30% | - | 0 mm | - | - | - |
| 1777711184 | 12.78° C | 35% | - | 0 mm | - | - | - |
| 1777709984 | 12.78° C | 36% | - | 0 mm | - | - | - |
| 1777709384 | 13.33° C | 36% | - | 0 mm | - | - | - |
| 1777708784 | 12.78° C | 36% | - | 0 mm | - | - | - |
| 1777706984 | 11.67° C | 39% | - | 0 mm | - | - | - |
| 1777706384 | 11.67° C | 40% | - | 0 mm | - | - | - |
| 1777705784 | 11.11° C | 50% | - | 0 mm | - | - | - |
| 1777705184 | 8.89° C | 64% | - | 0 mm | - | - | - |
| 1777704584 | 7.22° C | 68% | - | 0 mm | - | - | - |
| 1777703984 | 5.56° C | 76% | - | 0 mm | - | - | - |
| 1777703384 | 3.33° C | 85% | - | 0 mm | - | - | - |
| 1777702784 | 1.67° C | 86% | - | 0 mm | - | - | - |
| 1777702184 | -1.11° C | 85% | - | 0 mm | - | - | - |
| 1777701584 | -2.78° C | 84% | - | 0 mm | - | - | - |
| 1777700984 | -3.89° C | 84% | - | 0 mm | - | - | - |
| 1777700384 | -4.44° C | 83% | - | 0 mm | - | - | - |
| 1777699784 | -5° C | 83% | - | 0 mm | - | - | - |
| 1777699184 | -5.56° C | 83% | - | 0 mm | - | - | - |
| 1777698584 | -6.11° C | 83% | - | 0 mm | - | - | - |
| 1777697384 | -6.67° C | 82% | - | 0 mm | - | - | - |
| 1777696787 | -6.67° C | 82% | - | 0 mm | - | - | - |
| 1777695598 | -7.22° C | 81% | - | 0 mm | - | - | - |
* Rain latest hour (hover to see other rain measurements)
** Current wind speed in m/s (hover to see current wind gust speed)